カタログに戻る

COSMOS 2093

運用中軍事PO
NORAD 20738·PAYLOAD·🇷🇺 Russia

打ち上げ Aug 8, 1990 から Plesetsk Cosmodrome

Loading…

次のパス (今後24時間)

TLE

最新Source: Space-Track

元期: Sep 14, 2026, 16:45 UTC

1 20738U 90070D   26257.69840976  .00000004  00000-0 -34698-4 0  9996
2 20738  82.5704 243.5549 0007548 264.5156 268.6953 12.64096006665687

AllMySatでCOSMOS 2093をリアルタイム追跡

Download on the App Store